www.pogodaiklimat.ru
ПОГОДА в Фергане

Архив погоды в Фергане (Ферганская область, Узбекистан)

Время
и дата
02:50 28.05
03:00 28.05
03:10 28.05
03:20 28.05
03:40 28.05
03:50 28.05
04:00 28.05
04:10 28.05
04:20 28.05
04:30 28.05
04:40 28.05
04:50 28.05
05:10 28.05
05:20 28.05
05:30 28.05
05:50 28.05
06:10 28.05
06:20 28.05
06:30 28.05
06:40 28.05
06:50 28.05
07:00 28.05
07:10 28.05
07:20 28.05
07:30 28.05
07:40 28.05
07:50 28.05
08:00 28.05
08:10 28.05
08:20 28.05
08:30 28.05
08:40 28.05
08:50 28.05
09:10 28.05
09:20 28.05
09:30 28.05
09:40 28.05
09:50 28.05
10:00 28.05
10:10 28.05
10:20 28.05
10:30 28.05
10:40 28.05
10:50 28.05
11:00 28.05
11:10 28.05
11:20 28.05
11:30 28.05
11:40 28.05
11:50 28.05
12:00 28.05
12:10 28.05
12:20 28.05
12:30 28.05
13:00 28.05
13:10 28.05
13:20 28.05
13:30 28.05
13:40 28.05
13:50 28.05
14:00 28.05
14:20 28.05
14:30 28.05
14:40 28.05
14:50 28.05
15:00 28.05
15:20 28.05
15:30 28.05
15:40 28.05
15:50 28.05
16:00 28.05
16:10 28.05
16:20 28.05
16:30 28.05
16:40 28.05
16:50 28.05
17:00 28.05
17:10 28.05
17:20 28.05
17:40 28.05
17:50 28.05
18:00 28.05
18:10 28.05
18:30 28.05
18:40 28.05
18:50 28.05
19:10 28.05
19:20 28.05
19:40 28.05
19:50 28.05
20:00 28.05
20:10 28.05
20:20 28.05
20:40 28.05
20:50 28.05
21:00 28.05
21:10 28.05
21:20 28.05
21:30 28.05
21:40 28.05
21:50 28.05
22:10 28.05
22:20 28.05
22:30 28.05
22:40 28.05
23:00 28.05
23:10 28.05
23:20 28.05
23:30 28.05
23:50 28.05
00:00 29.05
00:10 29.05
00:20 29.05
00:30 29.05
00:50 29.05
01:00 29.05
01:10 29.05
01:20 29.05
01:30 29.05
01:40 29.05
01:50 29.05
02:10 29.05
02:20 29.05
02:30 29.05
02:40 29.05
03:00 29.05
03:10 29.05
03:20 29.05
03:30 29.05
03:40 29.05
03:50 29.05
04:00 29.05
04:10 29.05
04:20 29.05
04:30 29.05
04:50 29.05
05:00 29.05
05:20 29.05
05:40 29.05
05:50 29.05
06:00 29.05
06:10 29.05
06:20 29.05
06:40 29.05
Ветер
(напр.,м/с)
Видимость Явления Солнечная радиация
(Вт/м2)
Т
(С)
Тd
(С)
f
(%)
Тe
(С)
Тes
(С)
Комфортность P
(гПа)
Po
(гПа)
Тmin
(С)
Tmax
(С)
R
(мм)
ЮВ 0.9
{2.4}
+16.4 +6.4 52 +17 +17 1013.1 945.9 +16.5 +16.4
ЮВ 0.6
{1.7}
+16.1 +7.0 55 +17 +17 1013.1 945.9 +16.4 +16.1
ЮВ 0.9
{2.1}
+15.9 +7.5 57 +17 +17 1012.9 945.8 +16.1 +15.9
ЮВ 1.0
{3.1}
+16.1 +7.9 58 +17 +17 1012.9 945.8 +16.1 +15.9
ЮВ 1.0
{2.5}
+16.1 +8.3 60 +17 +17 1012.8 945.7 +16.2 +16.1
ЮВ 1.0
{1.9}
+16.0 +8.4 61 +17 +17 1013.1 945.9 +16.1 +16.0
ЮВ 0.7
{1.9}
+15.8 +8.6 62 +17 +17 1013.1 945.9 +16.0 +15.8
ЮВ 0.7
{1.6}
+15.5 +8.9 64 +17 +17 1013.1 945.9 +15.8 +15.5
ЮВ 1.1
{2.2}
+15.5 +9.0 65 +16 +16 1013.2 946.0 +15.6 +15.5
ЮВ 0.9
{2.2}
+15.4 +9.1 66 +16 +16 1013.2 946.0 +15.5 +15.4
ЮВ 0.6
{2.1}
+15.0 +9.4 69 +16 +16 1013.2 946.0 +15.4 +15.0
ЮВ 0.7
{1.8}
0.5 +14.8 +9.9 72 +16 +16 1013.3 946.1 +15.0 +14.8
Ю 1.0
{2.2}
12.8 +15.1 +9.2 68 +16 +16 1013.4 946.2 +15.1 +14.8
ЮВ 1.0
{2.6}
20.9 +15.2 +9.2 67 +16 +16 1013.5 946.3 +15.2 +15.1
ЮВ 1.1
{2.7}
28.1 +15.6 +8.5 63 +16 +17 1013.6 946.4 +15.6 +15.2
ЮВ 1.0
{2.4}
49.4 +16.3 +8.2 59 +17 +18 1013.7 946.5 +16.3 +16.0
ЮВ 0.7
{1.9}
118.3 +17.4 +8.6 56 +19 +22 1013.7 946.5 +17.4 +16.8
ЮВ 1.0
{1.8}
124.0 +17.9 +8.6 54 +19 +22 1013.7 946.5 +17.9 +17.4
Ю 1.0
{2.0}
190.9 +18.6 +8.9 53 +20 +24 1013.8 946.6 +18.6 +17.9
ЮВ 0.5
{1.4}
202.3 +19.6 +9.3 52 +22 +27 комфорт 1013.9 946.7 +19.5 +18.6
ЮВ 0.6
{1.8}
196.6 +20.3 +9.3 49 +23 +28 комфорт 1013.9 946.7 +20.3 +19.6
Ю 0.8
{1.8}
235.4 +20.7 +9.0 47 +23 +28 комфорт 1013.9 946.7 +20.7 +20.3
ЮВ 0.8
{1.9}
276.0 +21.5 +10.1 48 +23 +29 комфорт 1013.8 946.6 +21.4 +20.7
ЮВ 1.1
{2.0}
337.4 +22.4 +8.3 40 +24 +32 комфорт 1013.8 946.6 +22.4 +21.5
ЮВ 0.6
{1.3}
279.6 +23.2 +8.8 40 +25 +32 комфорт 1013.8 946.6 +23.1 +22.4
Ю 0.7
{2.0}
391.4 +23.9 +4.7 29 +24 +33 комфорт 1013.8 946.6 +23.9 +23.2
ЮЗ 0.7
{2.1}
409.5 +24.7 +5.9 30 +25 +35 комфорт 1013.9 946.7 +24.6 +23.9
З 0.8
{1.9}
458.0 +24.9 +4.7 27 +24 +35 комфорт 1013.9 946.7 +25.1 +24.7
СЗ 1.2
{2.7}
309.4 +24.2 +5.0 29 +24 +31 комфорт 1013.9 946.7 +24.9 +24.2
СЗ 1.3
{2.6}
398.4 +24.2 +6.2 31 +24 +33 комфорт 1013.9 946.7 +24.3 +24.1
СЗ 1.2
{2.9}
506.5 +24.7 +6.7 31 +25 +36 комфорт 1014.0 946.8 +24.7 +24.2
СЗ 1.4
{3.4}
532.3 +25.1 +7.2 32 +25 +37 комфорт 1013.9 946.7 +25.2 +24.7
СЗ 1.3
{2.8}
555.6 +25.4 +7.3 31 +25 +37 комфорт 1013.9 946.7 +25.5 +25.1
СЗ 1.8
{4.0}
607.5 +25.9 +6.0 28 +25 +38 комфорт 1013.8 946.6 +26.0 +25.3
СЗ 1.8
{3.3}
631.4 +26.1 +6.7 29 +26 +39 жарко 1013.8 946.6 +26.2 +25.7
СЗ 1.7
{3.3}
654.9 +26.6 +6.2 27 +26 +40 жарко 1013.8 946.6 +26.7 +26.1
СЗ 1.7
{3.6}
674.8 +27.0 +6.2 27 +26 +40 жарко 1013.8 946.6 +27.0 +26.6
СЗ 1.6
{3.5}
694.7 +27.4 +5.7 25 +26 +41 жарко 1013.8 946.6 +27.4 +27.0
СЗ 1.7
{3.7}
702.4 +27.5 +5.0 24 +26 +41 жарко 1013.8 946.6 +27.7 +27.3
СЗ 2.0
{4.2}
716.5 +27.3 +6.3 26 +27 +42 жарко 1013.8 946.6 +27.6 +27.3
З 1.7
{4.6}
747.5 +27.5 +2.2 19 +26 +42 жарко 1013.8 946.6 +27.8 +27.3
СЗ 1.7
{3.8}
762.1 +28.3 +2.9 20 +27 +43 жарко 1013.8 946.6 +28.4 +27.5
С 1.3
{4.1}
771.0 +29.1 +4.2 20 +27 +44 жарко 1013.8 946.6 +29.1 +28.3
СЗ 1.1
{2.5}
765.8 +29.2 +4.6 21 +28 +45 жарко 1013.7 946.5 +29.3 +28.9
З 1.6
{3.4}
758.2 +28.9 +4.7 21 +27 +43 жарко 1013.6 946.4 +29.2 +28.8
СЗ 1.4
{3.0}
804.0 +29.4 +4.8 21 +28 +46 жарко 1013.5 946.3 +29.5 +28.9
СЗ 1.1
{3.3}
778.1 +29.8 +3.2 18 +28 +46 жарко 1013.4 946.2 +29.8 +29.3
СЗ 1.8
{3.7}
789.7 +29.5 +1.1 16 +27 +44 жарко 1013.4 946.2 +29.8 +29.4
С 1.4
{3.5}
836.9 +30.1 +4.4 20 +28 +46 жарко 1013.3 946.1 +30.1 +29.4
З 1.9
{4.5}
806.7 +29.5 +4.4 20 +28 +45 жарко 1013.0 945.9 +30.3 +29.3
СЗ 0.9
{2.8}
720.8 +30.1 +3.6 19 +28 +45 жарко 1012.9 945.8 +30.1 +29.5
СЗ 1.6
{3.8}
783.8 +29.6 +3.5 19 +28 +45 жарко 1012.8 945.7 +30.1 +29.4
СЗ 1.8
{4.2}
865.8 +30.1 +3.6 19 +28 +46 жарко 1012.7 945.6 +30.2 +29.6
СВ 1.0
{2.3}
872.7 +30.6 +5.1 20 +29 +49 жарко 1012.7 945.6 +30.6 +29.7
СЗ 1.5
{3.6}
608.2 +30.0 +3.9 19 +28 +41 жарко 1012.6 945.5 +30.1 +29.7
СЗ 1.8
{4.7}
826.4 +30.7 +3.6 18 +28 +46 жарко 1012.6 945.5 +30.8 +30.0
С 2.0
{4.4}
807.7 +31.2 +5.1 19 +29 +46 жарко 1012.4 945.3 +31.3 +30.4
С 2.0
{5.0}
771.1 +31.3 +3.7 18 +29 +45 жарко 1012.3 945.2 +31.3 +30.8
СЗ 1.6
{4.7}
799.7 +31.5 +2.8 16 +29 +46 жарко 1012.3 945.2 +31.5 +31.2
С 1.4
{3.5}
756.7 +31.8 +3.8 17 +29 +46 жарко 1012.2 945.1 +31.8 +31.2
З 1.9
{4.2}
556.4 +30.9 +4.4 19 +29 +41 жарко 1012.3 945.2 +31.8 +30.8
СЗ 1.8
{4.8}
504.9 +30.2 +6.1 22 +29 +40 жарко 1012.2 945.1 +31.1 +30.2
СЗ 1.9
{4.4}
510.3 +30.3 +5.7 21 +29 +40 жарко 1012.1 945.0 +30.3 +30.1
СЗ 1.8
{3.5}
583.0 +30.5 +5.7 21 +29 +41 жарко 1012.0 944.9 +30.7 +30.3
СЗ 1.2
{3.8}
501.0 +31.0 +5.4 20 +29 +40 жарко 1012.0 944.9 +31.0 +30.4
СЗ 1.4
{3.9}
584.4 +31.1 +5.8 20 +29 +42 жарко 1011.9 944.8 +31.2 +30.9
З 1.2
{3.7}
345.4 +30.9 +6.2 21 +29 +37 жарко 1011.7 944.6 +31.3 +30.9
СЗ 2.0
{5.8}
312.7 +30.2 +6.7 23 +29 +36 жарко 1011.7 944.6 +30.9 +30.0
З 1.5
{3.7}
283.3 +30.2 +6.4 22 +29 +35 жарко 1011.7 944.6 +30.4 +30.1
СЗ 1.8
{4.4}
262.3 +30.0 +6.0 22 +29 +35 жарко 1011.7 944.6 +30.2 +29.8
СЗ 1.7
{3.8}
243.9 +29.7 +7.8 25 +29 +34 жарко 1011.7 944.6 +30.0 +29.7
СЗ 2.1
{4.4}
198.5 +29.3 +6.6 24 +28 +32 жарко 1011.7 944.6 +29.7 +29.3
СЗ 1.7
{3.4}
180.3 +29.1 +6.7 24 +28 +32 жарко 1011.7 944.6 +29.3 +29.1
СЗ 1.4
{3.4}
192.0 +29.2 +5.9 23 +28 +32 жарко 1011.7 944.6 +29.3 +29.1
СЗ 1.4
{3.1}
225.1 +29.4 +6.9 24 +28 +33 жарко 1011.7 944.6 +29.4 +29.2
С 1.4
{2.8}
332.1 +30.0 +7.6 24 +29 +36 жарко 1011.7 944.6 +30.0 +29.4
СЗ 1.4
{3.1}
270.8 +29.9 +7.4 24 +29 +35 жарко 1011.7 944.6 +30.1 +29.8
СЗ 1.5
{4.7}
145.7 +29.4 +6.8 24 +28 +31 жарко 1011.7 944.6 +29.9 +29.4
З 2.0
{4.6}
105.4 +29.2 +6.2 23 +28 +30 жарко 1011.8 944.7 +29.4 +29.1
З 1.8
{4.5}
52.6 +28.6 +6.6 25 +28 +29 жарко 1012.0 944.9 +28.8 +28.6
З 2.0
{6.2}
90.0 +28.4 +6.2 24 +27 +29 жарко 1012.1 945.0 +28.6 +28.4
Ю 3.3
{7.4}
140.5 +27.5 +7.5 28 +27 +30 жарко 1012.3 945.2 +28.4 +27.5
Ю 4.0
{10.0}
154.5 +26.7 +7.4 29 +26 +29 жарко 1012.4 945.3 +27.5 +26.8
Ю 2.6
{7.2}
72.0 +25.7 +8.2 33 +26 +27 жарко 1012.6 945.5 +26.2 +25.7
ЮВ 1.4
{3.6}
52.8 +25.4 +8.2 33 +26 +27 жарко 1012.6 945.5 +25.7 +25.4
ЮВ 1.7
{3.3}
28.8 +25.0 +8.1 34 +25 +26 комфорт 1012.5 945.4 +25.4 +25.1
Ю 1.4
{4.5}
9.6 +24.7 +7.2 33 +25 +25 комфорт 1012.7 945.6 +24.7 +24.5
Ю 2.0
{4.8}
5.7 +24.9 +6.8 31 +25 +25 комфорт 1012.7 945.6 +24.9 +24.7
ЮЗ 1.3
{4.1}
1.3 +24.7 +6.9 32 +25 +25 комфорт 1012.9 945.8 +24.9 +24.7
ЮЗ 1.1
{2.6}
+24.4 +6.6 32 +24 +24 комфорт 1012.9 945.8 +24.7 +24.4
ЮЗ 1.6
{2.8}
+24.5 +6.6 32 +25 +25 комфорт 1013.1 946.0 +24.6 +24.4
ЮЗ 1.4
{3.2}
+24.5 +6.2 31 +24 +24 комфорт 1013.3 946.1 +24.5 +24.3
ЮЗ 1.0
{2.7}
+24.1 +6.8 33 +24 +24 комфорт 1013.3 946.1 +24.5 +24.1
ЮЗ 1.9
{7.1}
+24.9 +3.1 24 +24 +24 комфорт 1013.4 946.2 +24.9 +24.5
ЮЗ 1.7
{3.6}
+24.9 +3.4 25 +24 +24 комфорт 1013.5 946.3 +25.0 +24.9
ЮЗ 1.7
{4.0}
+24.7 +3.8 26 +24 +24 комфорт 1013.6 946.4 +24.9 +24.7
ЮЗ 1.8
{4.8}
+24.5 +3.3 25 +24 +24 комфорт 1013.6 946.4 +24.7 +24.5
ЮЗ 1.8
{3.7}
+24.4 +3.5 26 +24 +24 комфорт 1013.8 946.6 +24.5 +24.4
ЮЗ 1.6
{2.9}
+24.0 +3.8 27 +24 +24 комфорт 1013.9 946.7 +24.4 +23.9
ЮЗ 1.4
{3.0}
+23.4 +3.7 28 +23 +23 комфорт 1013.9 946.7 +24.0 +23.4
ЮЗ 1.9
{3.9}
+23.6 +2.8 26 +23 +23 комфорт 1013.9 946.7 +23.6 +23.4
ЮЗ 1.8
{4.7}
+23.6 +2.2 25 +23 +23 комфорт 1014.0 946.8 +23.6 +23.5
ЮЗ 2.2
{5.3}
+23.5 +2.2 25 +23 +23 комфорт 1013.9 946.7 +23.6 +23.5
ЮЗ 3.1
{7.0}
+23.6 +1.4 23 +23 +23 комфорт 1013.9 946.7 +23.6 +23.4
ЮЗ 2.7
{6.1}
+23.4 +2.1 25 +23 +23 комфорт 1013.8 946.6 +23.7 +23.4
ЮЗ 2.1
{4.7}
+22.7 +1.9 25 +22 +22 комфорт 1013.7 946.5 +23.0 +22.7
ЮЗ 2.0
{4.5}
+22.4 +2.2 26 +22 +22 комфорт 1013.7 946.5 +22.7 +22.4
ЮЗ 2.8
{6.5}
+22.4 +2.2 26 +22 +22 комфорт 1013.6 946.4 +22.4 +22.4
ЮЗ 3.1
{6.6}
+22.5 +2.0 26 +22 +22 комфорт 1013.6 946.4 +22.5 +22.4
З 2.6
{6.3}
+22.3 +1.7 26 +22 +22 комфорт 1013.6 946.4 +22.4 +22.3
ЮЗ 2.8
{6.4}
+22.3 +1.8 26 +22 +22 комфорт 1013.6 946.4 +22.4 +22.3
ЮЗ 2.6
{4.9}
+22.2 +1.8 26 +22 +22 комфорт 1013.6 946.4 +22.3 +22.2
ЮЗ 3.1
{7.5}
+22.3 +1.5 25 +22 +22 комфорт 1013.5 946.3 +22.3 +22.2
З 3.7
{7.4}
+22.3 +1.3 25 +22 +22 комфорт 1013.5 946.3 +22.3 +22.3
ЮЗ 2.9
{6.4}
+21.8 +1.3 26 +21 +21 комфорт 1013.5 946.3 +22.0 +21.8
ЮЗ 3.2
{6.7}
+21.7 +1.3 26 +21 +21 комфорт 1013.5 946.3 +21.8 +21.7
ЮЗ 2.5
{5.9}
+21.5 +1.3 26 +21 +21 комфорт 1013.5 946.3 +21.7 +21.5
ЮЗ 2.3
{5.2}
+21.3 +1.0 26 +21 +21 комфорт 1013.4 946.2 +21.5 +21.3
ЮЗ 2.3
{5.4}
+21.4 +0.6 25 +21 +21 комфорт 1013.4 946.2 +21.4 +21.3
ЮЗ 2.1
{4.0}
+21.2 +0.6 25 +21 +21 комфорт 1013.4 946.2 +21.4 +21.2
ЮЗ 2.1
{5.0}
+21.0 +0.4 25 +22 +22 комфорт 1013.5 946.3 +21.2 +21.0
ЮЗ 1.9
{4.3}
+20.7 +0.4 26 +21 +21 комфорт 1013.4 946.2 +20.9 +20.7
ЮЗ 2.3
{5.1}
+20.9 +0.4 25 +21 +21 комфорт 1013.4 946.2 +20.9 +20.7
ЮЗ 2.2
{4.8}
+20.9 +0.4 25 +22 +22 комфорт 1013.4 946.2 +21.1 +20.9
ЮЗ 2.2
{5.2}
+21.1 +0.4 25 +21 +21 комфорт 1013.5 946.3 +21.1 +21.1
ЮЗ 2.0
{4.1}
+20.9 +0.7 26 +22 +22 комфорт 1013.5 946.3 +21.0 +20.9
ЮЗ 1.9
{3.7}
+20.8 +0.9 27 +22 +22 комфорт 1013.5 946.3 +20.9 +20.8
ЮЗ 1.8
{3.3}
+20.6 +1.2 27 +21 +21 комфорт 1013.5 946.3 +20.8 +20.6
ЮЗ 1.4
{2.6}
+20.0 +1.9 30 +21 +21 комфорт 1013.6 946.4 +20.6 +20.0
Ю 1.2
{2.2}
+19.0 +2.3 33 +20 +20 1013.6 946.4 +20.0 +19.1
ЮВ 1.3
{2.4}
+18.8 +2.5 34 +20 +20 1013.7 946.5 +19.1 +18.7
ЮВ 1.2
{2.2}
+18.0 +3.8 39 +19 +19 1013.7 946.5 +18.8 +18.0
ЮВ 0.9
{1.7}
+17.3 +4.1 41 +18 +18 1013.7 946.5 +18.0 +17.3
ЮВ 0.7
{2.0}
+16.7 +4.7 45 +18 +18 1013.8 946.6 +17.3 +16.7
ЮВ 0.6
{1.4}
+16.4 +4.5 45 +18 +18 1013.8 946.6 +16.7 +16.4
ЮВ 0.9
{2.3}
7.4 +17.3 +4.5 43 +18 +18 1013.9 946.7 +17.3 +16.6
Ю 0.5
{1.7}
13.2 +17.4 +5.4 45 +19 +19 1013.9 946.7 +17.6 +17.3
ЮВ 1.0
{2.3}
16.5 +17.8 +5.6 44 +19 +19 1014.1 946.9 +17.8 +17.6
ЮВ 0.7
{1.7}
24.6 +17.7 +6.6 48 +19 +20 1014.2 947.0 +18.0 +17.7
ЮВ 0.7
{1.9}
85.0 +17.9 +6.7 48 +19 +21 1014.3 947.1 +17.8 +17.6
В 0.9
{1.6}
66.8 +18.5 +7.3 48 +20 +22 1014.4 947.2 +18.5 +17.9
В 1.0
{1.8}
89.1 +19.0 +8.2 49 +21 +23 комфорт 1014.5 947.3 +19.0 +18.5
ЮВ 0.7
{1.5}
89.2 +19.0 +10.4 57 +21 +23 комфорт 1014.5 947.3 +19.1 +18.9
В 0.9
{2.3}
145.4 +19.5 +10.3 55 +22 +25 комфорт 1014.6 947.4 +19.5 +19.1
Местоположение метеостанции Фергана (Ферганская область, Узбекистан): широта 40.37 долгота 71.78 высота над уровнем моря 0 м.
В архиве по умолчанию представлена погода в Фергане за последние 1-2 суток. Обновление информации о фактической погоде в базе происходит ежечасно! Архивные данные за месяц целиком и за предыдущие месяцы Вы можете получить, выбрав интересующий диапазон дат из раскрывающегося списка и нажав кнопку "Ввод!".
*Определитесь, кто Вы:
Внимание! Время в таблицах - местное (без учета летнего времени). Для получения всемирного времени необходимо вычесть поправку, которая равна 5 ч.
Смотрите также архив погоды на ближайших метеорологических станциях:
Партнеры нашего сайта:      
Пояснения к столбцам:
  • Ветер - указаны скорость ветра в м/с - средняя за 10 мин, порывы в срок и между сроками (в фигурных скобках) и направление, откуда дует ветер: С - северный,
  • СВ - северо-восточный, В - восточный, ЮВ - юго-восточный, Ю - южный, ЮЗ - юго-западный, З - западный, СЗ - северо-западный.
  • Видимость - горизонтальная дальность видимости в метрах или километрах. При видимости от 1 до 10 км при отсутствии осадков обычно наблюдается дымка, при ухудшении видимости до 1 км и менее - туман. В сухую погоду видимость может ухудшаться дымом, пылью или мглою.
  • Явления - указаны атмосферные явления, наблюдавшиеся в срок или в последний час перед сроком.
  • Солнечная радиация - мощность потока солнечного излучения на поверхность земли и предметов в Вт/м2.
  • T - Температура воздуха - температура, измеренная на высоте 2 м над землей.
  • Td - Температура точки росы - температура, при понижении до которой содержащийся в воздухе водяной пар достигнет насыщения.
  • f - Относительная влажность воздуха - влажноcть воздуха, измеренная на высоте 2 м над землей.
  • Te - Эффективная температура - температура, которую ощущает одетый по сезону человек в тени. Характеристика душности погоды. При расчете учитывается влияние влажности воздуха и скорости ветра на теплоощущения человека.
  • Tes - Эффективная температура на солнце - температура, которую ощущает человек, с поправкой на солнечный нагрев. Характеристика знойности погоды. Зависит от высоты солнца над горизонтом, облачности и скорости ветра. Ночью, в пасмурную погоду, а также при ветре 12 м/с и более поправка равна нулю.
  • P - Атмосферное давление - приведенное к уровню моря атмосферное давление.
  • Po - Атмосферное давление - измеренное на уровне метеостанции атмосферное давление.
  • Tmin - Минимальная температура - минимум температуры воздуха на высоте 2 м над землей.
  • Tmax - Максимальная температура - максимум температуры воздуха на высоте 2 м над землей.
  • R - Количество осадков - Количество выпавших осадков за период времени, мм. При наведении курсора мыши на число - период времени, за который выпало указанное количество осадков.